TimeBST,TemperatureF,Dew PointF,Humidity,Sea Level PressureIn,VisibilityMPH,Wind Direction,Wind SpeedMPH,Gust SpeedMPH,PrecipitationIn,Events,Conditions,WindDirDegrees,DateUTC
12:50 AM,56,51,78,29.57,,West,16.1,,,,,270,2012-10-11 23:50:00
3:50 AM,52,46,74,29.61,,West,17.3,,,,,280,2012-10-12 02:50:00
6:50 AM,51,46,77,29.67,,West,17.3,,,,,270,2012-10-12 05:50:00
7:50 AM,50.0,44.6,82,29.68,6.2,West,12.7,-,N/A,,Mostly Cloudy,280,2012-10-12 06:50:00
8:20 AM,50.0,44.6,82,29.71,6.2,West,15.0,-,N/A,,Scattered Clouds,280,2012-10-12 07:20:00
8:50 AM,50.0,44.6,82,29.71,6.2,West,12.7,-,N/A,,Scattered Clouds,280,2012-10-12 07:50:00
9:20 AM,50.0,42.8,76,29.74,6.2,West,15.0,-,N/A,,Partly Cloudy,280,2012-10-12 08:20:00
9:50 AM,52,44,65,29.76,,West,15.0,,,,,280,2012-10-12 08:50:00
9:50 AM,51.8,42.8,71,29.77,-9999.0,West,16.1,-,N/A,,Clear,280,2012-10-12 08:50:00
10:20 AM,53.6,41.0,62,29.77,-9999.0,West,17.3,-,N/A,,Clear,280,2012-10-12 09:20:00
10:50 AM,53.6,42.8,67,29.77,6.2,West,16.1,-,N/A,,Partly Cloudy,280,2012-10-12 09:50:00
11:20 AM,55.4,41.0,58,29.77,6.2,West,17.3,-,N/A,,Partly Cloudy,270,2012-10-12 10:20:00
11:50 AM,55.4,39.2,54,29.80,6.2,West,18.4,-,N/A,,Partly Cloudy,270,2012-10-12 10:50:00
12:20 PM,55.4,42.8,63,29.80,6.2,West,17.3,-,N/A,,Partly Cloudy,280,2012-10-12 11:20:00
12:50 PM,56,42,49,29.80,,West,17.3,,,,,270,2012-10-12 11:50:00
12:50 PM,57.2,42.8,59,29.80,6.2,West,17.3,-,N/A,,Partly Cloudy,270,2012-10-12 11:50:00
1:20 PM,57.2,42.8,59,29.80,6.2,West,19.6,-,N/A,,Scattered Clouds,270,2012-10-12 12:20:00
1:50 PM,57.2,44.6,63,29.80,6.2,West,16.1,-,N/A,,Scattered Clouds,280,2012-10-12 12:50:00
2:20 PM,57.2,44.6,63,29.77,6.2,West,17.3,-,N/A,,Scattered Clouds,260,2012-10-12 13:20:00
2:50 PM,59.0,44.6,59,29.80,6.2,WSW,17.3,-,N/A,,Scattered Clouds,250,2012-10-12 13:50:00
3:50 PM,56,44,55,29.81,,West,11.5,,,,,260,2012-10-12 14:50:00
4:20 PM,57.2,42.8,59,29.80,6.2,WSW,18.4,-,N/A,,Partly Cloudy,250,2012-10-12 15:20:00
4:50 PM,55.4,42.8,63,29.80,6.2,West,11.5,-,N/A,,Partly Cloudy,280,2012-10-12 15:50:00
5:20 PM,51.8,42.8,71,29.83,6.2,NW,12.7,-,N/A,,Partly Cloudy,310,2012-10-12 16:20:00
5:50 PM,51.8,41.0,67,29.83,6.2,WNW,6.9,-,N/A,,Partly Cloudy,290,2012-10-12 16:50:00
6:20 PM,50.0,41.0,71,29.83,6.2,West,4.6,-,N/A,,Partly Cloudy,270,2012-10-12 17:20:00
6:50 PM,47,41,73,29.84,,West,2.3,,,,,260,2012-10-12 17:50:00
9:50 PM,51,47,82,29.80,,SW,6.9,,,,,220,2012-10-12 20:50:00